SCP
0 0 0 0 0 1 1 1 0 0 0 0 0 0 0 0 0 0 0 1 1 1 1 1 1 1 1 1 1 1 1 1 1 1 1 1 1 1 0 0 0 0 0
0 0 0 0 0 1 1 0 0 0 0 0 0 0 0 0 0 0 0 1 1 1 1 1 1 1 1 1 1 1 1 1 1 1 1 1 1 1 1 0 0 0 0
1 1 0 0 0 1 1 0 0 0 0 0 0 0 0 0 0 0 0 0 1 1 1 1 1 2 1 1 1 1 1 1 1 1 1 1 1 1 1 1 1 0 0
1 1 1 0 0 0 1 0 0 0 0 0 0 0 0 0 0 0 0 0 0 1 1 1 1 2 2 1 1 2 2 1 1 1 1 1 1 1 1 1 1 1 1
1 1 1 0 0 1 1 1 0 0 0 0 0 0 0 0 0 0 0 0 0 0 1 1 1 1 2 2 2 2 2 2 2 1 1 1 1 1 1 1 1 1 1
1 1 1 1 1 1 1 1 1 0 0 0 0 0 0 0 0 0 0 0 0 0 0 1 1 1 1 1 2 2 2 2 2 2 2 1 1 1 1 1 1 1 1
1 1 1 1 1 1 1 1 1 1 0 0 0 0 0 0 0 0 0 0 0 0 1 1 1 1 1 1 2 2 2 2 2 2 2 2 1 1 1 1 1 1 1
1 1 1 1 1 1 1 1 1 1 0 0 0 0 0 0 0 0 0 0 0 1 1 1 1 1 1 1 1 1 2 2 2 2 2 2 2 1 1 1 1 1 1
1 1 1 1 1 1 1 1 1 1 1 0 0 0 0 0 0 0 0 0 0 1 1 1 1 1 1 1 1 1 1 2 2 2 2 2 2 1 1 1 1 1 1
1 1 1 1 1 1 1 1 1 1 1 0 0 0 0 0 0 0 0 0 1 1 1 1 1 1 1 1 1 1 1 1 1 2 2 2 2 2 1 1 1 1 1
1 1 1 1 1 1 1 1 1 1 1 0 0 0 0 0 0 0 0 0 0 0 0 0 0 1 1 1 1 1 1 1 1 1 2 2 2 2 2 1 1 1 1
1 1 1 2 2 2 1 1 1 1 1 1 0 0 0 0 0 0 0 0 0 0 0 0 0 1 1 1 1 1 1 1 1 1 1 1 2 2 2 2 1 1 1
2 2 2 2 2 2 2 2 1 1 1 1 1 1 1 1 1 0 0 0 0 0 0 1 1 0 0 0 0 0 0 0 0 0 0 1 1 1 1 2 2 1 1
2 2 2 2 2 2 3 3 3 2 2 2 2 1 1 1 1 1 0 0 0 0 0 1 1 0 0 0 0 0 0 0 0 0 0 0 0 1 1 1 1 1 1
2 2 2 2 2 3 4 5 5 4 3 3 3 2 1 1 1 1 1 1 1 1 1 1 1 0 0 0 0 0 0 0 0 0 0 0 0 0 1 1 1 1 1
3 3 2 2 2 3 4 6 7 6 5 3 3 2 1 1 1 1 1 1 1 1 1 1 1 0 0 0 0 0 0 0 0 0 0 0 0 0 0 0 0 0 0
3 3 3 3 3 4 5 7 9 8 6 4 2 1 1 1 1 1 1 1 1 1 1 1 0 0 0 0 0 0 0 0 0 0 0 0 0 0 0 0 0 0 0
4 4 3 4 4 5 6 8 9 8 7 5 3 2 1 1 1 1 1 1 1 1 1 1 0 0 0 0 0 0 0 1 1 0 0 0 0 0 0 0 0 0 0
4 4 4 4 4 5 7 8 8 7 7 5 3 2 2 1 1 1 1 1 1 1 1 1 0 0 0 0 1 1 1 1 1 0 0 0 0 0 0 0 0 0 0
4 4 4 4 4 4 5 6 6 7 7 6 4 3 2 2 2 1 1 1 1 1 1 1 1 1 0 1 1 1 1 1 0 0 0 0 0 0 0 0 0 0 0
6 5 5 5 4 4 5 5 6 7 7 6 5 4 3 3 2 1 1 2 2 4 4 3 1 1 1 1 1 2 2 1 1 0 0 0 0 0 0 0 0 0 0
7 7 6 6 5 5 5 5 6 6 6 6 5 5 4 3 2 2 1 1 2 4 7 5 2 2 2 1 1 2 2 2 1 0 0 0 0 0 0 0 0 0 0
9 9 8 7 7 7 6 5 5 6 6 6 5 5 3 3 2 2 2 1 2 3 4 4 3 3 2 2 1 1 2 2 1 0 0 0 0 0 0 0 0 0 0
13 11 9 8 9 8 6 4 5 6 6 5 4 3 3 2 2 2 2 2 2 2 2 2 2 2 2 1 1 1 1 1 1 0 0 0 0 0 0 0 0 0 0
17 13 10 10 11 9 5 3 4 5 5 4 3 2 2 1 1 1 1 2 2 2 1 1 1 1 1 0 0 0 1 1 1 0 0 0 0 0 0 0 0 0 0
16 12 10 12 13 10 5 3 3 4 5 5 4 2 1 1 1 1 1 1 1 1 1 0 0 0 0 0 0 0 0 0 0 0 0 0 0 0 0 0 0 0 0
Wind_Speed
3 2 2 2 2 2 3 3 3 3 3 3 3 4 4 4 4 4 4 13 14 14 14 14 14 14 14 13 13 13 13 13 12 11 11 11 10 10 10 9 10 9 9
3 3 2 2 2 3 3 3 4 3 3 3 3 3 4 4 4 5 4 8 14 14 14 14 14 14 14 14 14 14 14 14 13 13 12 12 11 11 11 10 10 10 9
4 4 3 2 3 3 3 2 2 2 2 2 3 4 3 4 5 5 5 4 6 12 14 14 14 14 15 15 15 15 15 15 14 13 13 13 12 12 11 11 11 11 10
5 4 3 3 3 2 2 2 2 2 2 2 2 3 3 3 4 5 5 5 5 5 9 14 14 14 15 16 16 16 15 15 15 14 14 14 14 13 13 13 13 12 11
5 4 3 3 3 2 2 2 2 2 2 3 3 3 3 3 3 4 5 6 6 6 5 9 14 15 16 17 17 17 16 16 16 16 16 15 15 15 14 14 13 13 12
5 4 3 3 3 2 2 2 2 2 2 2 3 3 3 3 3 4 5 5 5 7 7 7 7 10 16 17 17 17 17 17 16 16 17 17 17 15 15 15 14 14 13
6 5 4 3 3 3 3 3 2 2 2 1 0 2 3 3 3 4 4 3 5 6 5 6 5 5 6 14 15 16 17 17 17 17 17 17 17 16 16 16 16 15 15
6 6 5 4 4 3 3 3 2 1 1 1 2 0 3 4 3 2 2 3 3 2 3 5 5 6 5 4 7 15 16 17 18 17 17 17 17 17 16 16 16 16 16
6 5 5 4 4 4 3 3 3 3 2 2 2 3 1 2 3 3 2 1 1 2 2 3 4 5 6 4 4 8 14 14 16 16 16 15 15 15 15 16 16 16 16
5 5 5 5 4 4 4 4 4 3 3 2 1 2 2 3 1 3 3 2 1 2 3 3 3 3 4 3 4 6 8 9 11 12 13 13 13 13 14 15 15 15 16
4 5 5 5 4 4 4 4 3 3 3 3 2 1 1 1 2 2 3 3 2 2 3 3 2 2 2 2 2 4 5 6 8 9 11 11 11 11 11 12 14 14 14
3 4 4 4 5 4 4 4 4 4 3 3 3 2 2 2 2 2 3 3 3 3 2 1 1 1 1 1 2 3 3 3 5 6 8 9 9 9 9 10 10 10 11
3 4 4 4 4 4 4 4 3 3 3 3 3 3 3 3 2 2 2 2 2 2 2 1 1 0 1 1 1 2 2 2 3 4 4 6 6 6 7 7 7 8 8
4 4 4 4 5 5 5 4 3 3 3 3 3 3 2 2 2 2 3 2 1 2 1 1 1 1 0 1 1 1 1 2 3 3 3 4 4 4 4 4 4 5 5
4 4 4 5 5 5 4 4 3 4 3 3 3 2 2 2 2 2 2 3 3 1 2 1 1 1 0 0 1 0 1 1 1 1 2 2 2 2 3 3 3 3 3
4 4 5 5 5 4 4 4 3 3 4 3 3 3 2 1 1 1 1 2 2 3 2 2 2 1 1 0 0 0 0 1 1 1 0 1 1 2 2 2 2 2 2
5 5 5 5 5 5 4 4 4 4 4 3 3 3 2 2 1 1 1 1 1 2 2 2 1 1 0 0 1 1 0 0 0 0 1 1 1 1 1 1 1 1 1
5 5 5 5 5 5 5 5 5 5 5 4 4 3 3 2 2 1 1 1 1 2 2 2 1 1 1 1 1 1 0 0 0 0 1 2 2 2 2 2 1 0 1
4 3 4 5 5 5 5 5 5 5 5 5 4 4 3 3 2 1 1 1 1 1 1 2 1 1 0 0 0 1 0 1 1 1 1 1 2 2 1 1 1 1 1
4 4 4 4 4 4 5 5 5 5 4 4 4 4 4 4 4 3 1 1 1 1 1 1 1 0 1 1 0 0 0 1 1 1 1 0 0 0 0 1 1 1 1
5 4 4 4 4 4 4 4 4 5 5 4 3 3 3 4 4 3 2 2 2 1 1 1 1 0 1 0 1 1 1 1 1 0 0 1 1 1 1 1 0 1 1
4 4 4 5 5 4 5 7 6 5 5 5 4 3 2 2 3 3 3 3 4 3 3 2 2 2 2 2 1 1 1 1 1 1 1 1 0 1 1 1 1 1 0
4 4 4 4 4 4 6 7 8 5 5 5 5 4 3 2 3 2 2 2 1 2 4 4 3 3 3 3 2 2 2 2 2 2 1 1 1 1 1 1 2 2 1
4 4 4 4 4 4 5 6 7 5 4 5 5 5 4 3 3 4 3 1 1 1 2 3 3 3 3 3 3 3 3 1 1 1 2 1 1 1 1 1 1 2 2
4 4 3 4 4 4 5 6 6 4 4 4 4 5 5 4 5 5 4 2 1 1 0 2 2 2 2 2 2 2 1 1 0 1 1 1 1 1 1 1 1 2 2
4 3 4 4 4 4 5 6 7 4 4 3 3 3 5 6 6 7 5 4 3 2 1 0 0 1 1 1 1 3 3 2 1 1 1 1 1 1 1 1 1 1 1
Wind_Direction
172 171 181 191 197 193 195 204 215 221 224 236 237 227 220 214 212 200 203 204 202 203 203 202 202 205 206 206 207 208 208 208 206 206 209 211 211 211 210 210 210 208 206
175 171 179 191 203 199 196 199 211 218 224 227 243 237 224 220 215 204 206 208 207 207 208 208 208 209 212 213 213 213 213 214 212 211 213 215 215 216 216 215 214 212 212
179 175 176 194 208 201 196 197 217 223 229 234 249 250 237 224 213 209 203 206 213 216 214 214 214 215 218 219 219 219 218 217 215 215 215 215 215 217 218 218 217 218 218
180 171 174 197 206 197 189 193 201 214 239 243 252 260 249 237 223 214 205 206 208 217 221 221 220 220 221 223 223 223 223 221 219 219 218 216 217 218 219 221 221 221 221
186 174 183 198 193 192 202 212 199 198 228 248 250 253 253 247 238 224 212 212 208 211 217 227 228 226 226 228 228 227 226 225 223 222 221 221 222 221 222 223 224 225 225
194 180 188 198 187 185 206 211 213 214 223 238 265 278 266 249 236 228 224 221 212 213 216 226 229 233 232 232 231 230 230 228 226 225 225 225 225 223 222 223 225 227 228
195 187 193 190 188 194 211 210 200 215 238 216 1 318 308 280 251 238 232 229 225 220 214 218 223 228 235 234 234 233 233 233 230 229 227 226 226 225 223 223 225 227 228
193 194 189 191 190 192 213 212 197 193 242 180 152 59 327 332 318 270 245 230 238 229 226 225 222 226 229 227 230 234 236 236 236 233 231 230 228 227 226 226 226 227 228
196 200 194 191 193 187 202 209 196 190 219 238 182 161 173 255 301 312 297 255 236 232 240 236 227 228 224 223 230 238 240 241 241 239 236 233 230 227 227 226 228 229 229
198 203 198 192 192 190 198 210 197 190 184 218 242 212 192 183 205 309 320 316 272 242 248 253 242 230 227 219 219 225 233 236 241 243 241 239 236 231 229 229 232 233 232
204 204 198 195 195 196 199 202 190 190 186 191 197 206 221 214 196 202 282 308 313 272 251 242 235 230 207 201 219 225 230 236 240 245 244 240 238 235 233 233 235 238 238
216 215 201 198 198 196 196 195 191 192 198 194 191 189 188 196 210 198 233 269 284 285 282 255 217 214 179 180 220 220 216 229 242 243 244 244 243 242 242 240 242 245 246
212 222 211 203 203 202 197 190 189 197 196 197 202 206 205 210 201 186 196 239 266 285 316 344 303 183 139 138 220 204 211 228 236 240 244 247 249 250 250 249 247 249 252
213 214 210 208 208 200 197 191 197 207 200 206 213 207 211 222 204 188 187 187 253 298 311 296 332 359 49 136 177 205 248 247 250 248 244 241 240 241 242 243 250 255 260
214 211 207 204 206 202 197 187 200 206 199 207 215 214 215 223 206 202 189 176 173 222 274 275 302 318 332 114 145 180 241 269 267 257 242 226 218 226 228 226 231 242 253
219 205 203 201 201 198 196 188 196 203 197 207 202 197 206 220 216 202 193 189 174 176 215 242 234 242 226 149 201 230 264 292 299 327 206 181 190 204 210 216 220 237 250
215 211 206 200 199 199 195 190 198 187 185 197 199 190 205 195 195 205 181 174 178 163 194 256 254 256 152 256 323 303 298 291 296 187 176 146 135 132 128 139 180 223 246
216 207 201 198 201 200 197 193 201 193 186 189 193 187 202 192 190 200 186 194 196 177 172 222 268 252 227 234 231 224 245 28 294 277 163 127 119 120 116 104 104 105 270
212 205 200 203 204 200 200 201 197 192 189 191 191 192 202 186 198 208 198 202 219 188 162 175 239 262 273 313 342 340 72 17 4 39 102 129 146 147 134 122 93 33 337
199 197 204 206 203 201 200 200 194 189 187 190 189 191 195 189 192 195 198 210 203 159 144 155 187 269 288 295 131 313 339 320 312 16 37 48 111 138 122 98 69 38 353
205 201 198 202 204 202 206 197 192 188 181 183 186 190 193 187 182 183 186 186 169 164 157 163 188 205 263 280 244 234 215 297 299 321 2 332 342 348 328 323 329 341 13
208 195 199 203 209 219 217 200 190 188 182 181 187 193 192 179 173 171 175 171 165 168 177 176 197 204 230 226 223 201 177 133 280 272 163 276 157 277 280 270 273 260 259
207 206 210 206 210 224 216 203 196 182 183 184 183 182 188 175 162 173 183 176 198 185 179 176 192 216 213 217 200 204 200 194 217 230 156 253 265 261 266 270 242 222 210
212 214 214 210 209 223 209 198 193 187 184 184 184 185 179 182 189 178 170 172 219 243 205 187 192 210 214 214 201 200 202 199 290 279 136 192 263 260 281 282 262 209 200
213 210 204 207 209 225 209 196 186 184 186 191 189 186 182 187 194 173 159 174 204 290 262 165 189 207 222 222 177 126 120 120 264 276 193 153 219 274 305 281 273 233 221
204 199 208 212 210 221 209 193 183 185 188 190 188 188 188 191 186 176 175 174 190 221 197 156 30 336 303 295 167 164 167 156 166 247 237 154 172 123 300 286 267 261 240